TimeCDT,TemperatureF,Dew PointF,Humidity,Sea Level PressureIn,VisibilityMPH,Wind Direction,Wind SpeedMPH,Gust SpeedMPH,PrecipitationIn,Events,Conditions,WindDirDegrees,DateUTC
12:53 AM,54.0,51.1,90,29.94,6.0,SSE,8.1,-,N/A,,Clear,160,2013-10-28 05:53:00
1:53 AM,53.1,51.1,93,29.94,6.0,SE,6.9,-,N/A,,Clear,140,2013-10-28 06:53:00
2:53 AM,53.1,51.1,93,29.94,6.0,SE,5.8,-,N/A,,Clear,130,2013-10-28 07:53:00
3:53 AM,52.0,50.0,93,29.94,5.0,SE,4.6,-,N/A,,Clear,130,2013-10-28 08:53:00
4:53 AM,51.1,50.0,96,29.94,3.0,SE,5.8,-,N/A,,Clear,130,2013-10-28 09:53:00
5:04 AM,51.8,50.0,94,29.97,2.5,ESE,6.9,-,N/A,,Partly Cloudy,120,2013-10-28 10:04:00
5:18 AM,51.8,51.8,100,29.96,2.5,ESE,6.9,-,N/A,,Mostly Cloudy,110,2013-10-28 10:18:00
5:31 AM,53.6,51.8,94,29.97,3.0,ESE,6.9,-,N/A,,Overcast,110,2013-10-28 10:31:00
5:37 AM,53.6,51.8,94,29.96,1.8,ESE,6.9,-,N/A,,Overcast,110,2013-10-28 10:37:00
5:53 AM,53.1,51.1,93,29.95,1.2,ESE,6.9,-,N/A,,Overcast,120,2013-10-28 10:53:00
6:53 AM,54.0,53.1,97,29.96,1.0,SE,6.9,-,N/A,,Mist,130,2013-10-28 11:53:00
7:02 AM,53.6,53.6,100,29.99,0.8,ESE,6.9,-,N/A,,Mist,110,2013-10-28 12:02:00
7:53 AM,54.0,53.1,97,29.98,0.5,ESE,6.9,-,N/A,Fog,Fog,110,2013-10-28 12:53:00
8:53 AM,55.9,54.0,93,30.00,0.2,ESE,6.9,-,N/A,Fog,Fog,110,2013-10-28 13:53:00
9:17 AM,57.2,55.4,94,30.02,0.5,ESE,9.2,-,N/A,Fog,Fog,120,2013-10-28 14:17:00
9:42 AM,57.2,57.2,100,30.02,1.2,SE,10.4,-,N/A,,Overcast,140,2013-10-28 14:42:00
9:53 AM,59.0,57.9,96,30.01,1.8,SE,9.2,-,N/A,,Overcast,140,2013-10-28 14:53:00
10:14 AM,60.8,57.2,88,30.02,2.5,SE,10.4,-,N/A,,Overcast,130,2013-10-28 15:14:00
10:26 AM,60.8,59.0,94,30.03,3.0,SE,11.5,-,N/A,,Overcast,130,2013-10-28 15:26:00
10:53 AM,62.1,60.1,93,30.01,5.0,SE,12.7,-,N/A,,Overcast,140,2013-10-28 15:53:00
11:53 AM,63.0,61.0,93,30.00,6.0,SE,15.0,-,N/A,,Overcast,140,2013-10-28 16:53:00
12:32 PM,64.4,62.6,94,30.00,8.0,SE,15.0,-,N/A,,Overcast,140,2013-10-28 17:32:00
12:53 PM,64.9,62.1,90,29.98,9.0,SE,16.1,-,N/A,,Overcast,140,2013-10-28 17:53:00
1:44 PM,66.2,62.6,88,29.97,10.0,SE,13.8,-,N/A,,Overcast,130,2013-10-28 18:44:00
1:53 PM,66.9,62.1,84,29.94,10.0,SE,12.7,-,N/A,,Overcast,130,2013-10-28 18:53:00
2:16 PM,69.8,62.6,78,29.95,10.0,SE,17.3,-,N/A,,Overcast,140,2013-10-28 19:16:00
2:53 PM,70.0,63.0,78,29.91,10.0,ESE,17.3,-,N/A,,Overcast,120,2013-10-28 19:53:00
3:53 PM,71.1,63.0,75,29.89,10.0,ESE,18.4,-,N/A,,Overcast,120,2013-10-28 20:53:00
4:27 PM,71.6,62.6,73,29.91,10.0,ESE,18.4,-,N/A,,Overcast,110,2013-10-28 21:27:00
4:53 PM,71.1,63.0,75,29.88,10.0,East,20.7,-,N/A,,Overcast,100,2013-10-28 21:53:00
5:53 PM,72.0,63.0,73,29.88,10.0,SE,18.4,-,N/A,,Overcast,130,2013-10-28 22:53:00
6:14 PM,71.6,62.6,73,29.91,10.0,SE,17.3,-,N/A,,Overcast,140,2013-10-28 23:14:00
6:53 PM,71.1,63.0,75,29.88,10.0,SE,18.4,-,N/A,,Overcast,130,2013-10-28 23:53:00
7:53 PM,69.1,63.0,81,29.90,10.0,SE,19.6,-,N/A,,Clear,140,2013-10-29 00:53:00
8:53 PM,69.1,63.0,81,29.91,10.0,SE,20.7,-,N/A,,Partly Cloudy,140,2013-10-29 01:53:00
9:53 PM,68.0,63.0,84,29.91,10.0,SE,19.6,-,N/A,,Mostly Cloudy,140,2013-10-29 02:53:00
10:53 PM,69.1,63.0,81,29.92,10.0,SE,19.6,-,N/A,,Mostly Cloudy,140,2013-10-29 03:53:00
11:53 PM,69.1,63.0,81,29.93,10.0,SSE,17.3,-,N/A,,Overcast,150,2013-10-29 04:53:00